Location: Township of Marena
(38.1747°N, 99.6798°W)
Time: 14:41:10
(UTC+00:00)

Cosmos 1606 Rocket - Pass Details

Date: 26 October 2020
Orbit: 603 x 631 km, 82.5° (Epoch: 28 November)

Event Time Altitude Azimuth Distance (km) Brightness Sun altitude
Rises 00:35:48 0° 192° (SSW) 2,852 7.2 -10.3°
Reaches altitude 10° 00:38:00 10° 195° (SSW) 1,956 6.4 -10.7°
Maximum altitude 00:42:19 68° 278° (W) 662 3.9 -11.5°
Drops below altitude 10° 00:46:42 10° 2° (N) 1,988 6.1 -12.4°
Sets 00:48:58 0° 5° (N) 2,903 6.9 -12.8°
